Location: El Dieciséis
(32.4721°N, 116.6080°W)
Time: 07:12:19
(UTC+00:00)

ARIANE 6 FM1 Upper Stage - Pass Details

Date: 18 August 2024
Orbit: 566 x 594 km, 62.0° (Epoch: 19 September)

Event Time Altitude Azimuth Distance (km) Brightness Sun altitude
Exits shadow 12:38:41 - 205° (SSW) 2,711 5.7 -7.7°
Reaches altitude 10° 12:40:46 10° 203° (SSW) 1,878 4.9 -7.3°
Maximum altitude 12:44:59 70° 120° (ESE) 619 3.0 -6.4°
Drops below altitude 10° 12:49:16 10° 37° (NE) 1,909 6.3 -5.6°
Sets 12:51:33 0° 35° (NE) 2,817 7.2 -5.1°
